[[{"header":{"parameterUnit":"m.s-1","parameterCategory":2,"la1":30.2992,"la2":30.254,"lo1":-89.0895,"lo2":-89.0443,"dy":0.0025,"dx":0.0025,"nx":19,"ny":19,"refTime":"2026-04-01T21:00:00:Z","depth":"0","parameterNumber":2,"parameterNumberName":"U-component_of_CURRENTS"},"data":[0,0,0,0.1078,0.1078,0.1053,0.1053,0.0987,0.0986,0,0,0,0,0,0,0,0,0,0,0,0.1084,0.1084,0.1078,0.1078,0.1053,0.1053,0.0987,0.0986,0,0,0,0,0,0,0,0,0,0,0,0.1084,0.1084,0.1085,0.1078,0.1053,0.1053,0.0987,0.1011,0,0,0,0,0,0,0,0,0,0,0.1038,0.1058,0.1084,0.1085,0.1078,0.1053,0.1053,0.1012,0.101,0.0994,0,0.0999,0,0.0998,0.0983,0.0983,0,0,0,0.1063,0.1061,0.1053,0.1085,0.1078,0.1053,0.106,0.1011,0.1008,0.099,0.0998,0.0996,0.0997,0.0982,0.0982,0.1042,0.1043,0,0,0.1065,0.1076,0.1056,0.1052,0.1083,0.1061,0.106,0.1009,0.101,0.0998,0.0995,0.0996,0.0982,0.0982,0.1041,0.1042,0,0,0,0.1079,0.1078,0.1071,0.1054,0.1056,0.1061,0.1059,0.1012,0.1011,0.0994,0.0996,0.0982,0.0981,0.104,0.1042,0.1148,0,0,0,0.1079,0.1087,0.1072,0.1078,0.1058,0.104,0.1063,0.1014,0.1008,0.0996,0.0982,0.098,0.1039,0.1041,0.1142,0.1144,0,0,0,0.1083,0.1087,0.1088,0.1079,0.1075,0.1041,0.1036,0.1013,0.101,0.0982,0.098,0.1038,0.104,0.1137,0.1137,0.1216,0,0,0,0.109,0.1103,0.1088,0.111,0.1076,0.1103,0.1036,0.1043,0.103,0.0981,0.1039,0.1041,0.1136,0.1133,0.1212,0.1272,0.1298,0,0,0.111,0.1105,0.112,0.1107,0.1151,0.1105,0.116,0.1107,0.1064,0.1047,0.1048,0.1144,0.1136,0.1215,0.142,0.1441,0,0,0,0.113,0.1143,0.1154,0.1176,0.1186,0.1203,0.1175,0.1174,0.1175,0.107,0.1167,0.1158,0.1205,0.1232,0.125,0.1301,0.1053,0.1053,0.1053,0.1161,0.1177,0.1211,0.1236,0.1258,0.1282,0.1302,0.1297,0.1254,0.1291,0.1264,0.1414,0.1448,0.1461,0.1514,0.1309,0.1309,0.1309,0.131,0.1197,0.1208,0.1247,0.1279,0.1313,0.1353,0.1402,0.1404,0.1458,0.1391,0.1434,0.1365,0.1487,0.1536,0.1317,0.1316,0.1315,0.1314,0.1314,0.1205,0.1208,0.1235,0.128,0.133,0.1372,0.1443,0.1481,0.152,0.1567,0.1597,0.1595,0.1619,0.1604,0.1604,0.1604,0.1605,0.1605,0.1605,0.1179,0.1208,0.1222,0.127,0.129,0.135,0.1458,0.1534,0.1656,0.1691,0.1692,0.1692,0.1503,0.1469,0.1612,0.161,0.161,0.1609,0.1609,0.1161,0.1163,0.1184,0.1201,0.1258,0.1305,0.1437,0.1644,0.1752,0.1834,0.1917,0.1774,0.1736,0.1722,0.1693,0.1885,0.1885,0.1885,0.1885,0.1127,0.1137,0.114,0.1155,0.1201,0.1279,0.1425,0.1633,0.19,0.2024,0.2061,0.2028,0.2014,0.1989,0.1968,0.1943,0.2194,0.2195,0.2195,0.1101,0.111,0.1096,0.112,0.1162,0.1251,0.1367,0.1581,0.1998,0.2209,0.2128,0.2115,0.2062,0.2036,0.1984,0.1951,0.1902,0,0]},{"header":{"parameterUnit":"m.s-1","parameterCategory":2,"la1":30.2992,"la2":30.254,"lo1":-89.0895,"lo2":-89.0443,"dy":0.0025,"dx":0.0025,"nx":19,"ny":19,"refTime":"2026-04-01T21:00:00:Z","depth":"0","parameterNumber":3,"parameterNumberName":"V-component_of_CURRENTS"},"data":[0,0,0,-0.0172,-0.0174,-0.0241,-0.0241,-0.0258,-0.0258,0,0,0,0,0,0,0,0,0,0,0,-0.0141,-0.0141,-0.0172,-0.0174,-0.0241,-0.0241,-0.0258,-0.0258,0,0,0,0,0,0,0,0,0,0,0,-0.0141,-0.0141,-0.0142,-0.0174,-0.0241,-0.0241,-0.0258,-0.0222,0,0,0,0,0,0,0,0,0,0,-0.0164,-0.0146,-0.0141,-0.0142,-0.0175,-0.0241,-0.0241,-0.0221,-0.0224,-0.0211,0,-0.0228,0,-0.0251,-0.0259,-0.0259,0,0,0,-0.0163,-0.0143,-0.0168,-0.0142,-0.0176,-0.0241,-0.0208,-0.0223,-0.0227,-0.0215,-0.0228,-0.023,-0.0251,-0.0259,-0.0259,-0.0224,-0.0223,0,0,-0.0159,-0.0144,-0.0166,-0.0171,-0.02,-0.0206,-0.021,-0.0226,-0.0227,-0.0228,-0.0231,-0.0251,-0.0259,-0.0259,-0.0224,-0.0223,0,0,0,-0.0156,-0.0141,-0.0167,-0.0169,-0.0192,-0.0208,-0.0213,-0.0226,-0.0237,-0.0231,-0.0251,-0.0259,-0.0259,-0.0224,-0.0224,-0.0166,0,0,0,-0.0153,-0.0141,-0.0165,-0.0155,-0.0192,-0.0219,-0.0212,-0.0235,-0.0238,-0.0251,-0.0259,-0.0259,-0.0225,-0.0224,-0.0169,-0.0121,0,0,0,-0.0137,-0.0139,-0.015,-0.0155,-0.0191,-0.022,-0.0231,-0.0237,-0.0251,-0.0259,-0.0259,-0.0225,-0.0224,-0.0171,-0.0126,-0.007,0,0,0,-0.0113,-0.0125,-0.015,-0.0162,-0.0191,-0.0202,-0.0232,-0.0245,-0.0249,-0.0259,-0.0225,-0.0224,-0.0172,-0.0129,-0.0074,-0.0005,0.0016,0,0,-0.0113,-0.0125,-0.013,-0.0154,-0.0148,-0.0191,-0.0169,-0.0197,-0.0225,-0.0214,-0.0214,-0.0168,-0.0126,-0.0071,0.0056,0.0076,0,0,0,-0.0119,-0.0114,-0.0119,-0.0123,-0.0143,-0.0124,-0.0164,-0.0169,-0.0169,-0.0227,-0.0162,-0.0137,-0.0104,-0.007,-0.0055,-0.0121,-0.0219,-0.0219,-0.0219,-0.0077,-0.0084,-0.0065,-0.0066,-0.0066,-0.0078,-0.0063,-0.0072,-0.0123,-0.0111,-0.0087,0.0002,0.0038,0.005,-0.0019,-0.0096,-0.0096,-0.0096,-0.0095,-0.0031,-0.001,0.0,0.0014,0.0029,0.0045,0.0048,0.002,0.0044,-0.0017,0.0011,-0.0007,0.0071,-0.0009,-0.0092,-0.0092,-0.0093,-0.0093,-0.0093,0.002,0.0031,0.0039,0.0084,0.0124,0.0121,0.0192,0.0158,0.0118,0.0142,0.0168,0.0167,0.0096,0.0143,0.0144,0.0144,0.0145,0.0145,0.0145,0.0065,0.0078,0.0119,0.0155,0.019,0.0242,0.0269,0.0297,0.0298,0.0261,0.0261,0.0129,0.0075,0.0064,0.0153,0.0151,0.015,0.015,0.0149,0.0121,0.0122,0.0192,0.0232,0.0323,0.0425,0.0436,0.0509,0.0508,0.0528,0.0326,0.0326,0.0321,0.0308,0.0303,0.0448,0.0448,0.0448,0.0448,0.0162,0.0165,0.0267,0.0348,0.045,0.0516,0.0684,0.0723,0.0598,0.0511,0.041,0.0347,0.0338,0.0328,0.0315,0.0307,0.045,0.045,0.045,0.021,0.0233,0.0319,0.0392,0.0506,0.0635,0.0807,0.0919,0.0687,0.0438,0.0307,0.0307,0.0196,0.0187,0.0151,0.0138,0.0118,0,0]}],[{"header":{"parameterUnit":"m.s-1","parameterCategory":2,"la1":30.2992,"la2":30.254,"lo1":-89.0895,"lo2":-89.0443,"dy":0.0025,"dx":0.0025,"nx":19,"ny":19,"refTime":"2026-04-01T21:00:00:Z","depth":"2","parameterNumber":2,"parameterNumberName":"U-component_of_CURRENTS"},"data":[0,0,0,0.118,0.118,0.1157,0.1157,0.1119,0.1118,0,0,0,0,0,0,0,0,0,0,0,0.1185,0.1185,0.118,0.118,0.1157,0.1157,0.1119,0.1118,0,0,0,0,0,0,0,0,0,0,0,0.1185,0.1185,0.1185,0.118,0.1157,0.1157,0.1119,0.1135,0,0,0,0,0,0,0,0,0,0,0.1157,0.117,0.1185,0.1185,0.118,0.1157,0.1157,0.1136,0.1134,0.1131,0,0.1134,0,0.1133,0.1117,0.1117,0,0,0,0.1167,0.1172,0.1166,0.1185,0.118,0.1157,0.1164,0.1135,0.1133,0.1128,0.1134,0.1132,0.1132,0.1117,0.1117,0.1195,0.1196,0,0,0.1168,0.1177,0.1168,0.1165,0.1183,0.1165,0.1163,0.1133,0.1135,0.1134,0.1132,0.1132,0.1117,0.1116,0.1194,0.1196,0,0,0,0.1181,0.1179,0.1173,0.1167,0.1168,0.1164,0.1163,0.1136,0.1135,0.1131,0.1131,0.1116,0.1116,0.1193,0.1195,0.1287,0,0,0,0.1181,0.1187,0.1174,0.1179,0.1168,0.1154,0.1166,0.1137,0.1133,0.1131,0.1116,0.1116,0.1192,0.1194,0.1282,0.1284,0,0,0,0.1184,0.1187,0.1187,0.118,0.1176,0.1154,0.1151,0.1136,0.1134,0.1117,0.1116,0.1191,0.1194,0.1277,0.1278,0.1355,0,0,0,0.119,0.1201,0.1188,0.1209,0.1177,0.1208,0.1151,0.1162,0.1155,0.1116,0.1192,0.1195,0.1276,0.1274,0.135,0.1376,0.1398,0,0,0.1207,0.1203,0.1218,0.1206,0.125,0.1209,0.1267,0.1226,0.1193,0.1196,0.1198,0.1283,0.1277,0.1354,0.1518,0.1536,0,0,0,0.1227,0.1239,0.1251,0.1273,0.1287,0.1308,0.1288,0.1292,0.1303,0.1202,0.1308,0.1301,0.1346,0.1354,0.1369,0.1206,0.1206,0.1206,0.1206,0.1252,0.1271,0.1304,0.1333,0.1358,0.1387,0.141,0.1415,0.1379,0.1415,0.1396,0.1537,0.1549,0.1559,0.1438,0.1438,0.1439,0.1439,0.1439,0.1284,0.1297,0.1338,0.1372,0.1411,0.1454,0.1512,0.1515,0.1575,0.1514,0.1556,0.1474,0.1581,0.1447,0.1445,0.1444,0.1444,0.1443,0.1443,0.1289,0.1293,0.1321,0.1369,0.1423,0.1471,0.1545,0.1588,0.163,0.1675,0.1686,0.1684,0.1569,0.1709,0.171,0.171,0.171,0.1711,0.1711,0.1259,0.129,0.1305,0.1357,0.138,0.1443,0.1556,0.163,0.174,0.1768,0.1769,0.1627,0.1618,0.1585,0.1717,0.1716,0.1715,0.1715,0.1714,0.1238,0.1242,0.1266,0.1285,0.1347,0.1393,0.1524,0.1708,0.1812,0.188,0.1839,0.1834,0.18,0.1788,0.1759,0.1928,0.1928,0.1928,0.1928,0.1204,0.1215,0.1222,0.1242,0.1291,0.1366,0.148,0.1633,0.1802,0.1857,0.1859,0.1799,0.1793,0.1753,0.1741,0.1708,0.1864,0.1863,0.1863,0.1178,0.1188,0.1178,0.1206,0.1253,0.1333,0.1404,0.1485,0.1681,0.1852,0.1767,0.1939,0.1855,0.1844,0.178,0.1762,0.1708,0,0]},{"header":{"parameterUnit":"m.s-1","parameterCategory":2,"la1":30.2992,"la2":30.254,"lo1":-89.0895,"lo2":-89.0443,"dy":0.0025,"dx":0.0025,"nx":19,"ny":19,"refTime":"2026-04-01T21:00:00:Z","depth":"2","parameterNumber":3,"parameterNumberName":"V-component_of_CURRENTS"},"data":[0,0,0,-0.0231,-0.0233,-0.0293,-0.0293,-0.0304,-0.0304,0,0,0,0,0,0,0,0,0,0,0,-0.0202,-0.0203,-0.0231,-0.0233,-0.0293,-0.0293,-0.0304,-0.0304,0,0,0,0,0,0,0,0,0,0,0,-0.0202,-0.0203,-0.0203,-0.0233,-0.0293,-0.0293,-0.0304,-0.0272,0,0,0,0,0,0,0,0,0,0,-0.0221,-0.0205,-0.0203,-0.0203,-0.0234,-0.0293,-0.0293,-0.0271,-0.0274,-0.0262,0,-0.0277,0,-0.0299,-0.0305,-0.0305,0,0,0,-0.0221,-0.0203,-0.0226,-0.0204,-0.0234,-0.0293,-0.0262,-0.0273,-0.0277,-0.0265,-0.0278,-0.0279,-0.0299,-0.0305,-0.0305,-0.0273,-0.0273,0,0,-0.0218,-0.0204,-0.0224,-0.0228,-0.0257,-0.0261,-0.0265,-0.0276,-0.0276,-0.0278,-0.028,-0.0299,-0.0305,-0.0305,-0.0274,-0.0273,0,0,0,-0.0216,-0.0201,-0.0225,-0.0227,-0.0248,-0.0263,-0.0267,-0.0276,-0.0286,-0.028,-0.0299,-0.0305,-0.0305,-0.0274,-0.0274,-0.022,0,0,0,-0.0214,-0.0202,-0.0224,-0.0215,-0.0248,-0.0272,-0.0266,-0.0285,-0.0288,-0.0299,-0.0305,-0.0305,-0.0275,-0.0274,-0.0222,-0.0176,0,0,0,-0.0198,-0.02,-0.0211,-0.0214,-0.0248,-0.0272,-0.0283,-0.0286,-0.0299,-0.0305,-0.0305,-0.0275,-0.0274,-0.0224,-0.0181,-0.0128,0,0,0,-0.0176,-0.0187,-0.0211,-0.022,-0.0248,-0.0255,-0.0283,-0.0292,-0.0295,-0.0305,-0.0275,-0.0274,-0.0225,-0.0183,-0.0131,-0.0082,-0.0064,0,0,-0.0174,-0.0186,-0.0189,-0.0212,-0.0204,-0.0245,-0.0223,-0.0247,-0.0274,-0.0265,-0.0265,-0.0221,-0.0181,-0.0129,-0.003,-0.0013,0,0,0,-0.0177,-0.0173,-0.0176,-0.0179,-0.0196,-0.0179,-0.0216,-0.0223,-0.0224,-0.0276,-0.0218,-0.0194,-0.0163,-0.014,-0.0126,-0.0269,-0.027,-0.027,-0.027,-0.0137,-0.0143,-0.0122,-0.0122,-0.0122,-0.0134,-0.0123,-0.0135,-0.0181,-0.0173,-0.0149,-0.0067,-0.0042,-0.0032,-0.0159,-0.0159,-0.0159,-0.0159,-0.0159,-0.009,-0.0069,-0.006,-0.0044,-0.0032,-0.0018,-0.0021,-0.0048,-0.0029,-0.0087,-0.006,-0.0082,-0.0014,-0.0154,-0.0155,-0.0156,-0.0156,-0.0156,-0.0157,-0.0041,-0.0031,-0.0021,0.0023,0.006,0.0054,0.0114,0.0081,0.0041,0.0062,0.0079,0.0079,-0.002,0.0066,0.0066,0.0067,0.0067,0.0067,0.0068,0.0002,0.0016,0.0056,0.009,0.0123,0.0169,0.0189,0.021,0.0204,0.0165,0.0165,0.0009,0.0002,-0.0007,0.0074,0.0073,0.0072,0.0072,0.0071,0.0056,0.0057,0.0125,0.0163,0.0246,0.0333,0.034,0.0394,0.0391,0.0404,0.0226,0.022,0.0214,0.0203,0.0199,0.0329,0.0329,0.0329,0.0329,0.0093,0.0098,0.0196,0.0271,0.0362,0.0415,0.0549,0.0556,0.0481,0.0409,0.0405,0.0353,0.0341,0.0338,0.0323,0.032,0.0482,0.0482,0.0482,0.0138,0.0162,0.0243,0.0311,0.0413,0.0519,0.0647,0.0672,0.0546,0.0486,0.0403,0.0345,0.0254,0.0241,0.0221,0.0204,0.0192,0,0]}],[{"header":{"parameterUnit":"m.s-1","parameterCategory":2,"la1":30.2992,"la2":30.254,"lo1":-89.0895,"lo2":-89.0443,"dy":0.0025,"dx":0.0025,"nx":19,"ny":19,"refTime":"2026-04-01T21:00:00:Z","depth":"4","parameterNumber":2,"parameterNumberName":"U-component_of_CURRENTS"},"data":[0,0,0,0.088,0.0882,0.1025,0.1026,0.1214,0.1216,0,0,0,0,0,0,0,0,0,0,0,0.0843,0.0843,0.088,0.0882,0.1025,0.1026,0.1214,0.1216,0,0,0,0,0,0,0,0,0,0,0,0.0842,0.0843,0.0844,0.0883,0.1025,0.1026,0.1214,0.1111,0,0,0,0,0,0,0,0,0,0,0.0975,0.0933,0.0843,0.0844,0.0883,0.1024,0.1026,0.1107,0.1118,0.1142,0,0.1156,0,0.1172,0.1226,0.1226,0,0,0,0.0911,0.0924,0.0951,0.0844,0.0884,0.1024,0.0969,0.1113,0.1126,0.1156,0.1159,0.1166,0.1176,0.1227,0.1227,0.1355,0.1355,0,0,0.0903,0.0884,0.0942,0.0958,0.0911,0.0964,0.0973,0.1121,0.1136,0.116,0.117,0.1179,0.1228,0.1229,0.1355,0.1355,0,0,0,0.0861,0.0879,0.0904,0.0951,0.0967,0.0967,0.0978,0.1131,0.1135,0.1172,0.1181,0.1228,0.123,0.1354,0.1355,0.1356,0,0,0,0.0858,0.0852,0.09,0.0892,0.0963,0.1049,0.0984,0.1126,0.1142,0.118,0.1228,0.1232,0.1354,0.1355,0.1355,0.137,0,0,0,0.0838,0.085,0.0861,0.089,0.0936,0.1047,0.1063,0.113,0.1146,0.1226,0.1232,0.1354,0.1354,0.1355,0.1368,0.1415,0,0,0,0.0822,0.084,0.0861,0.0892,0.0934,0.1009,0.1062,0.1159,0.123,0.1229,0.1354,0.1355,0.1355,0.1368,0.1414,0.127,0,0,0,0.0832,0.0841,0.086,0.0881,0.0928,0.0992,0.1076,0.1204,0.1243,0.131,0.1314,0.1356,0.1368,0.1415,0.1309,0,0,0,0,0.0855,0.0865,0.0884,0.0922,0.0975,0.1059,0.1161,0.1205,0.1306,0.1281,0.1369,0.1377,0.1406,0.1318,0.1358,0.1358,0.1358,0.1358,0.1358,0.0841,0.0872,0.0907,0.0958,0.1015,0.1125,0.12,0.1281,0.1311,0.1356,0.1387,0.1437,0.1342,0.139,0.139,0.139,0.139,0.139,0.139,0.0841,0.0856,0.0925,0.0975,0.1061,0.115,0.1263,0.1312,0.1406,0.14,0.1428,0.1335,0.1391,0.139,0.139,0.139,0.139,0.139,0.139,0.0814,0.0823,0.088,0.0967,0.1073,0.1184,0.1284,0.1362,0.1425,0.1461,0.1398,0.1458,0.145,0.1486,0.1487,0.1487,0.1487,0.1487,0.1488,0.075,0.0802,0.0859,0.0958,0.1035,0.115,0.1303,0.1368,0.1447,0.1404,0.1481,0.147,0.1467,0.1458,0.1492,0.1491,0.149,0.149,0.149,0.0691,0.0739,0.0806,0.088,0.1026,0.109,0.1243,0.1335,0.1394,0.1399,0.1378,0.1383,0.138,0.138,0.1367,0.1375,0.1374,0.1372,0,0.0653,0.0677,0.0772,0.086,0.0947,0.1053,0.1109,0.1206,0.1283,0.1235,0.1395,0.1367,0.137,0.1362,0.136,0.1341,0,0,0,0.0625,0.0661,0.0715,0.0817,0.0907,0.1002,0.1119,0.1124,0.1256,0.1285,0.1329,0.1341,0.1442,0.1504,0.1512,0.1508,0.1494,0,0]},{"header":{"parameterUnit":"m.s-1","parameterCategory":2,"la1":30.2992,"la2":30.254,"lo1":-89.0895,"lo2":-89.0443,"dy":0.0025,"dx":0.0025,"nx":19,"ny":19,"refTime":"2026-04-01T21:00:00:Z","depth":"4","parameterNumber":3,"parameterNumberName":"V-component_of_CURRENTS"},"data":[0,0,0,0.0001,0.0002,0.0024,0.0024,0.0045,0.0045,0,0,0,0,0,0,0,0,0,0,0,-0.0016,-0.0016,0.0001,0.0002,0.0024,0.0024,0.0045,0.0045,0,0,0,0,0,0,0,0,0,0,0,-0.0016,-0.0016,-0.0015,0.0002,0.0024,0.0024,0.0044,0.0028,0,0,0,0,0,0,0,0,0,0,0.0007,-0.0003,-0.0016,-0.0015,0.0002,0.0024,0.0024,0.0028,0.0029,0.0034,0,0.0035,0,0.0047,0.0047,0.0047,0,0,0,-0.0004,-0.0005,0.0002,-0.0015,0.0002,0.0024,0.0012,0.0029,0.0031,0.0036,0.0036,0.0037,0.0047,0.0047,0.0047,0.0026,0.0025,0,0,-0.0005,-0.0011,0.0001,0.0003,0.0005,0.0012,0.0013,0.003,0.003,0.0036,0.0038,0.0048,0.0047,0.0047,0.0026,0.0026,0,0,0,-0.0005,-0.0012,-0.0006,0.0002,0.001,0.0012,0.0014,0.0029,0.0031,0.0038,0.0048,0.0047,0.0047,0.0027,0.0026,0.0019,0,0,0,-0.0006,-0.0012,-0.0007,-0.001,0.001,0.0023,0.0013,0.003,0.0033,0.0048,0.0047,0.0048,0.0027,0.0026,0.002,0.0041,0,0,0,-0.0016,-0.0012,-0.0011,-0.001,0.0003,0.0022,0.0025,0.0031,0.0039,0.0047,0.0048,0.0027,0.0026,0.0021,0.0042,0.0059,0,0,0,-0.0022,-0.0002,-0.0011,0.0023,0.0003,0.0034,0.0025,0.0041,0.0047,0.0047,0.0027,0.0026,0.0022,0.0043,0.006,0.0126,0,0,0,0.0006,0.0001,0.0025,0.0018,0.0055,0.0031,0.0039,0.0036,0.0029,0.0021,0.0021,0.002,0.0042,0.0059,0.0065,0,0,0,0,0.0037,0.0048,0.0062,0.0078,0.009,0.0064,0.0055,0.0034,0.0004,0.003,0.0001,0.0016,0.0027,0.0064,0.0021,0.0021,0.0021,0.0022,0.0022,0.0047,0.0067,0.0094,0.0103,0.0108,0.008,0.0055,0.0013,0.0011,-0.0022,-0.0005,-0.0014,0.0021,-0.0035,-0.0035,-0.0035,-0.0035,-0.0035,-0.0035,0.0082,0.0098,0.0099,0.0129,0.0096,0.0085,0.0035,0.0008,-0.002,-0.0036,-0.0025,0.0035,-0.0036,-0.0036,-0.0036,-0.0036,-0.0036,-0.0036,-0.0036,0.0085,0.0092,0.0107,0.0123,0.0106,0.0078,0.0073,0.0029,-0.0009,-0.0012,0.0045,-0.0007,0.0013,-0.0002,-0.0002,-0.0002,-0.0002,-0.0002,-0.0002,0.0075,0.0092,0.0105,0.0119,0.0121,0.012,0.0101,0.0099,0.0062,0.0062,0.0002,-0.0002,-0.0003,0.0015,0.0001,0.0,-0.0,-0.0,-0.0,0.0084,0.0085,0.0113,0.0122,0.015,0.0162,0.0155,0.0174,0.0178,0.0174,0.0099,0.0094,0.0113,0.011,0.0133,0.0154,0.0154,0.0155,0,0.0075,0.0082,0.0114,0.0142,0.0181,0.0187,0.0237,0.0243,0.0199,0.0192,0.0152,0.0065,0.0062,0.0081,0.008,0.0105,0,0,0,0.0068,0.0082,0.01,0.0143,0.0192,0.0238,0.0252,0.0262,0.0201,0.0244,0.0177,0.0171,0.0098,0.0007,0.0025,0.0024,0.0055,0,0]}]]